User: anonymous   Login
Location: Caltech
(34.1382°N, 118.1253°W)
Time: 06:03:57
(UTC-08:00)
Language:

SL-08 R/B - Orbit

View from above orbital plane
View from above orbital plane
View from above satellite
View from above satellite

Ground track
Ground track

The orbit data is extracted from the following two-line orbital elements,

1 27561U 02054C   16342.88446249  .00000071  00000-0  26653-4 0  9997
2 27561  98.2312 113.1189 0047111  48.0041 312.5154 14.55578108744452
Epoch (UTC): 07 December 2016 21:13:37
Eccentricity: 0.0047111
inclination: 98.2312°
perigee height: 674 km
apogee height: 741 km
right ascension of ascending node: 113.1189°
argument of perigee: 48.0041°
revolutions per day: 14.55578108
mean anomaly at epoch: 312.5154°
orbit number at epoch: 74445

The dashed part of the orbit path shows where the satellite is in the earth's shadow,  

DLR